Location: Ferma
(41.9500°N, 44.5167°E)
Time: 18:00:22
(UTC+00:00)

METEOR 2-8 DEB - Visible Passes

Search period start: 11 August 2022 00:00
Search period end: 21 August 2022 00:00
Orbit: 792 x 830 km, 82.5° (Epoch: 08 August)

Date Brightness Start Highest point End Pass type
(mag) Time Alt. Az. Time Alt. Az. Time Alt. Az.
11 Aug ? 00:30:50 10° N 00:36:09 50° ENE 00:41:29 10° SSE visible
12 Aug ? 00:07:13 10° N 00:12:16 36° ENE 00:17:18 10° SE visible
12 Aug ? 23:43:44 10° NNE 23:48:19 26° ENE 23:52:54 10° SE visible
13 Aug ? 01:25:16 10° NNW 01:30:20 40° W 01:35:24 10° SSW visible
13 Aug ? 23:20:25 10° NNE 23:24:18 19° ENE 23:28:12 10° ESE visible
14 Aug ? 01:01:15 10° NNW 01:06:36 56° W 01:11:57 10° S visible
14 Aug ? 22:57:27 10° NE 23:00:15 14° ENE 23:03:03 10° E visible
15 Aug ? 00:37:20 10° N 00:42:50 79° W 00:48:19 10° S visible
16 Aug ? 00:13:30 10° N 00:19:00 75° E 00:24:31 10° SSE visible
16 Aug ? 23:49:45 10° N 23:55:09 54° ENE 00:00:31 10° SSE visible
17 Aug ? 01:32:47 10° NW 01:36:35 19° W 01:40:22 10° SW visible
17 Aug ? 23:26:06 10° N 23:31:13 38° ENE 23:36:19 10° SE visible
18 Aug ? 01:08:23 10° NNW 01:12:55 27° W 01:17:24 10° SW visible
18 Aug ? 23:02:33 10° NNE 23:07:15 28° ENE 23:11:37 11° SE visible
19 Aug ? 00:44:11 10° NNW 00:49:13 37° W 00:52:42 18° SSW visible
19 Aug ? 22:39:11 10° NNE 22:43:14 20° ENE 22:47:01 11° ESE visible
20 Aug ? 00:20:08 10° NNW 00:25:28 53° W 00:28:07 28° SSW visible
20 Aug ? 22:16:05 10° NNE 22:19:09 15° ENE 22:22:11 10° E visible
